Regional Weather Roundup
Issued by NWS

Home | Current Version | Previous Version | Graphics & Text | Print | Product List | Glossary On
Versions: 1 2 3 4 5 6 7 8 9 10 11 12 13 14 15 16 17 18 19 20 21 22 23 24 25 26 27 28 29 30 31 32 33 34 35 36 37 38 39 40 41 42 43 44 45 46 47 48 49 50
000
ASUS43 KLOT 031513
RWRIL

ILLINOIS REGIONAL WEATHER ROUNDUP
NATIONAL WEATHER SERVICE CHICAGO/ROMEOVILLE IL
1000 AM CDT WED JUN 03 2015

NOTE: "FAIR" INDICATES FEW OR NO CLOUDS BELOW 12,000 FEET WITH NO
SIGNIFICANT WEATHER AND/OR OBSTRUCTIONS TO VISIBILITY.

* THESE STATIONS ARE NOT UNDER NWS QUALITY CONTROL. THEY ALSO MAY NOT
  REPORT WEATHER SUCH AS PRECIPITATION OR FOG.

ILZ001-002-007-009-015-016-024-031600-
NORTHWEST ILLINOIS

CITY           SKY/WX    TMP DP  RH WIND       PRES   REMARKS
MOLINE         SUNNY     70  57  63 SE13      30.01S
STERLING*      SUNNY     70  57  64 S6        30.04S
SAVANNA*       SUNNY     71  57  60 S9        30.01F
$$

ILZ003-004-008-010-011-017-018-031600-
NORTH CENTRAL ILLINOIS

CITY           SKY/WX    TMP DP  RH WIND       PRES   REMARKS
ROCKFORD       PTSUNNY   69  56  62 S13       30.06F
FREEPORT*      SUNNY     67  57  69 S9        30.05S
ROCHELLE*      SUNNY     68  56  66 S9G16     30.05F
DE KALB*       SUNNY     65  54  67 SE10      30.06F
PERU*          SUNNY     67  56  67 S8        30.05F
$$

ILZ005-006-012>014-019>023-031600-
NORTHEAST ILLINOIS

CITY           SKY/WX    TMP DP  RH WIND       PRES   REMARKS
CHICAGO-OHARE  MOSUNNY   65  52  62 S5        30.07S
CHICAGO-MIDWAY MOSUNNY   68  53  58 S6        30.08F
AURORA         SUNNY     69  54  58 S9        30.06F
LANSING*       SUNNY     66  51  59 SE5       30.09R
JOLIET*        SUNNY     68  57  68 S7        30.07F
WAUKEGAN       SUNNY     62  52  69 E9        30.06F
DUPAGE AIRPORT SUNNY     66  54  65 S7        30.06F
KANKAKEE*      SUNNY     66  57  71 SE8       30.09S
WHEELING       SUNNY     67  53  61 S7        30.08F
MORRIS*        SUNNY     67  55  64 S7        30.05F
ROMEOVILLE*    SUNNY     66  54  65 S7        30.07F
NORTHERLY ISL    N/A     59  52  77 NE3         N/A
$$

LMZ740>746-031600-
SOUTHERN LAKE MICHIGAN

STATION/POSITION SKY/WX   TEMP    WIND        PRES    VSBY  WAVE
                          AIR SEA DIR/SP/G                  HT/PER
                          (F)     (DEG/KT/KT) (MB)    (MI)  (FT/S)
SOUTHERN BUOY              44 39  100/  4/  4 1019.8F         0
HARRISON CRIB              54     130/  7/  8   N/A
BURNHAM HARBOR             59      70/  2/  4   N/A
CALUMET HARBOR             63     200/  4/  5   N/A
BURNS HARBOR                      180/  6/ 10 1019.6S
MICHIGAN CITY              62     130/  9/ 11   N/A
MICHIGAN CITY 6N           61 58  190/  2/  4   N/A           1
ST. JOSEPH                 58 56  340/  2/  2   N/A           0
$$

ILZ025>027-034>036-040-047-049-050-058-095>099-031600-
WEST-CENTRAL ILLINOIS

CITY           SKY/WX    TMP DP  RH WIND       PRES   REMARKS
QUINCY         CLOUDY    64  57  78 S10       30.03R
GALESBURG*     PTSUNNY   68  58  70 S10       30.03S
MACOMB*        MOSUNNY   68  58  71 S13       30.05S
JACKSONVILLE*  CLOUDY    66  58  75 SE10      30.05F
PITTSFIELD*    CLOUDY    62  56  82 S8        30.05F
$$

ILZ028>032-037-038-041>044-048-051>054-059>061-031600-
CENTRAL ILLINOIS

CITY           SKY/WX    TMP DP  RH WIND       PRES   REMARKS
PONTIAC        MOSUNNY   69  60  74 S7        30.07S
BLOOMINGTON    PTSUNNY   66  61  82 SW7       30.08S
DECATUR        CLOUDY    67  57  70 S8        30.07S
PEORIA         MOSUNNY   71  59  65 S12       30.04F
LACON*         MOSUNNY   68  58  70 S7        30.03F
LINCOLN*       CLOUDY    68  58  69 S7        30.04F
SPRINGFIELD    CLOUDY    67  57  70 S12       30.06S
TAYLORVILLE    CLOUDY    64  55  72 S7        30.07R
$$

ILZ033-039-045-046-055>057-062-063-031600-
EAST-CENTRAL ILLINOIS

CITY           SKY/WX    TMP DP  RH WIND       PRES   REMARKS
CHAMPAIGN      MOSUNNY   67  57  70 S8        30.07F
DANVILLE*      SUNNY     64  55  72 S8        30.05F
RANTOUL*       MOSUNNY   68  58  71 S5        30.08R
MATTOON        CLOUDY    65  57  75 S3        30.06F
PARIS*         PTSUNNY   64  56  76 E9        30.08F
$$

ILZ079-100>102-031600-
SOUTHWEST ILLINOIS

CITY           SKY/WX    TMP DP  RH WIND       PRES   REMARKS
BELLEVILLE     CLOUDY    65  60  83 S7        30.05S
CAHOKIA*       CLOUDY    65  57  75 S7        30.06R
SPARTA*        CLOUDY    64  59  83 S6        30.06F
$$

ILZ064>066-069>071-074>076-080>082-084>086-088>090-092>094-031600-
SOUTH-CENTRAL ILLINOIS

CITY           SKY/WX    TMP DP  RH WIND       PRES   REMARKS
CARBONDALE     MOSUNNY   66  56  70 S6        30.05F
CAIRO*         CLOUDY    67  57  69 CALM      30.05S
EFFINGHAM*     CLOUDY    65  54  66 S3        30.08F
MARION         MOSUNNY   66  55  68 MISG      30.06F
MT. VERNON     CLOUDY    64  54  68 CALM      30.08S
CENTRALIA*     PTSUNNY   69  53  56 SE3       30.06F
SALEM*         PTSUNNY   65  56  70 S5        30.08S
METROPOLIS*    SUNNY     67  57  71 CALM      30.05F
$$

ILZ067-068-072-073-078-083-087-091-031600-
SOUTHEAST ILLINOIS

CITY           SKY/WX    TMP DP  RH WIND       PRES   REMARKS
LAWRENCEVILLE  CLOUDY    64  55  72 SE3       30.08F
FLORA*         SUNNY     65  58  77 CALM      30.07F
FAIRFIELD*     CLOUDY    64  57  77 CALM      30.06F
HARRISBURG*    MOSUNNY   66  57  72 E3        30.07F
ROBINSON*      PTSUNNY   61  55  81 SE3       30.09F HAZE
CARMI*         PTSUNNY   66  52  59 E5        30.06F
$$

ABBREVIATIONS USED IN REMARKS
   TC - TEMPERATURE IN CELSIUS
  WCI - WIND CHILL INDEX
   HX - HEAT INDEX
  VSB - VISIBILITY
$$



USA.gov is the U.S. government's official web portal to all federal, state and local government web resources and services.